• In Netherlands
  • List of Countries
  • For 7 days
  • Water Temperature
  • Satellite Maps
  • Weather Map
  • Weather Widgets
  • user-avatar
    Login

    Hourly Weather Klagenfurt

    Today, 25 April, Tuesday

    Time Temperature Precipitation Wind Pressure Humidity
    00:00 +6°C° 0 mm 1 mps 687 mmHg 97%
    01:00 +5°C° 0 mm 2 mps 687 mmHg 97%
    02:00 +5°C° 0 mm 2 mps 687 mmHg 97%
    03:00 +6°C° 0 mm 1 mps 686 mmHg 97%
    04:00 +6°C° 0 mm 1 mps 686 mmHg 97%
    05:00 +7°C° 0 mm 1 mps 686 mmHg 95%
    06:00 +7°C° 0 mm 2 mps 686 mmHg 92%
    07:00 +8°C° 0 mm 2 mps 686 mmHg 88%
    08:00 +9°C° 0.1 mm 2 mps 686 mmHg 82%
    09:00 +10°C° 0.1 mm 3 mps 686 mmHg 77%
    10:00 +11°C° 0.1 mm 3 mps 686 mmHg 72%
    11:00 +12°C° 0.1 mm 4 mps 686 mmHg 70%
    12:00 +12°C° 0.1 mm 4 mps 686 mmHg 68%
    13:00 +13°C° 0.1 mm 4 mps 686 mmHg 66%
    14:00 +13°C° 0.1 mm 4 mps 685 mmHg 66%
    15:00 +12°C° 0.1 mm 4 mps 685 mmHg 67%
    16:00 +12°C° 0.1 mm 4 mps 685 mmHg 67%
    17:00 +11°C° 0.1 mm 4 mps 684 mmHg 74%
    18:00 +10°C° 0.1 mm 3 mps 684 mmHg 81%
    19:00 +8°C° 0.1 mm 2 mps 683 mmHg 88%
    20:00 +8°C° 0.2 mm 2 mps 683 mmHg 89%
    21:00 +8°C° 0.2 mm 2 mps 684 mmHg 91%
    22:00 +7°C° 0.2 mm 2 mps 684 mmHg 92%
    23:00 +7°C° 0.2 mm 2 mps 684 mmHg 92%

    Tomorrow, 26 April, Wednesday

    Time Temperature Precipitation Wind Pressure Humidity
    00:00 +8°C° 0.2 mm 2 mps 684 mmHg 93%
    01:00 +8°C° 0.2 mm 3 mps 684 mmHg 94%
    02:00 +8°C° 0.1 mm 3 mps 683 mmHg 94%
    03:00 +7°C° 0.1 mm 3 mps 683 mmHg 95%
    04:00 +7°C° 0.1 mm 3 mps 683 mmHg 95%
    05:00 +8°C° 0.1 mm 3 mps 683 mmHg 94%
    06:00 +8°C° 0.1 mm 3 mps 683 mmHg 92%
    07:00 +8°C° 0.1 mm 3 mps 683 mmHg 91%
    08:00 +8°C° 0.4 mm 3 mps 683 mmHg 90%
    09:00 +9°C° 0.4 mm 3 mps 683 mmHg 90%
    10:00 +9°C° 0.4 mm 2 mps 683 mmHg 90%
    11:00 +9°C° 0.8 mm 3 mps 683 mmHg 89%
    12:00 +10°C° 0.8 mm 3 mps 683 mmHg 87%
    13:00 +10°C° 0.8 mm 3 mps 683 mmHg 86%
    14:00 +10°C° 0.9 mm 3 mps 683 mmHg 86%
    15:00 +10°C° 0.9 mm 3 mps 683 mmHg 85%
    16:00 +10°C° 0.9 mm 3 mps 683 mmHg 85%
    17:00 +9°C° 0.8 mm 3 mps 683 mmHg 87%
    18:00 +9°C° 0.8 mm 3 mps 682 mmHg 90%
    19:00 +9°C° 0.8 mm 2 mps 682 mmHg 92%
    20:00 +9°C° 0.9 mm 2 mps 683 mmHg 93%
    21:00 +9°C° 0.9 mm 2 mps 683 mmHg 94%
    22:00 +9°C° 0.9 mm 2 mps 683 mmHg 95%
    23:00 +9°C° 1.4 mm 2 mps 683 mmHg 95%

    Day after tomorrow, 27 April, Thursday

    Time Temperature Precipitation Wind Pressure Humidity
    00:00 +9°C° 1.4 mm 2 mps 683 mmHg 95%
    01:00 +9°C° 1.4 mm 2 mps 683 mmHg 95%
    02:00 +9°C° 1.3 mm 2 mps 683 mmHg 96%
    03:00 +9°C° 1.3 mm 2 mps 683 mmHg 96%
    04:00 +9°C° 1.3 mm 2 mps 683 mmHg 97%
    05:00 +9°C° 0.7 mm 2 mps 683 mmHg 96%
    06:00 +9°C° 0.7 mm 2 mps 684 mmHg 95%
    07:00 +9°C° 0.7 mm 2 mps 684 mmHg 94%
    08:00 +10°C° 1 mm 2 mps 684 mmHg 92%
    09:00 +10°C° 1 mm 2 mps 685 mmHg 90%
    10:00 +12°C° 1 mm 2 mps 685 mmHg 88%
    11:00 +12°C° 1.8 mm 2 mps 685 mmHg 89%
    12:00 +12°C° 1.8 mm 2 mps 685 mmHg 90%
    13:00 +12°C° 1.8 mm 2 mps 684 mmHg 92%
    14:00 +10°C° 2.2 mm 2 mps 684 mmHg 93%
    15:00 +10°C° 2.2 mm 2 mps 684 mmHg 94%
    16:00 +10°C° 2.2 mm 2 mps 683 mmHg 95%
    17:00 +9°C° 3.2 mm 2 mps 683 mmHg 96%
    18:00 +9°C° 3.2 mm 2 mps 683 mmHg 96%
    19:00 +8°C° 3.2 mm 2 mps 683 mmHg 97%
    20:00 +8°C° 3.9 mm 2 mps 683 mmHg 97%
    21:00 +8°C° 3.9 mm 2 mps 683 mmHg 97%
    22:00 +8°C° 3.9 mm 1 mps 683 mmHg 97%
    23:00 +8°C° 3.5 mm 1 mps 682 mmHg 97%

    28 April, Friday

    Time Temperature Precipitation Wind Pressure Humidity
    00:00 +8°C° 3.5 mm 1 mps 682 mmHg 97%
    01:00 +8°C° 3.5 mm 1 mps 682 mmHg 97%
    02:00 +7°C° 1.7 mm 1 mps 681 mmHg 97%
    03:00 +7°C° 1.7 mm 1 mps 681 mmHg 97%
    04:00 +7°C° 1.7 mm 1 mps 681 mmHg 97%
    05:00 +7°C° 1.6 mm 1 mps 681 mmHg 96%
    06:00 +7°C° 1.6 mm 1 mps 681 mmHg 96%
    07:00 +7°C° 1.6 mm 1 mps 681 mmHg 96%
    08:00 +7°C° 1.8 mm 1 mps 681 mmHg 96%
    09:00 +7°C° 1.8 mm 1 mps 681 mmHg 95%
    10:00 +7°C° 1.8 mm 1 mps 682 mmHg 95%
    11:00 +8°C° 0.5 mm 1 mps 682 mmHg 90%
    12:00 +8°C° 0.5 mm 2 mps 683 mmHg 85%
    13:00 +9°C° 0.5 mm 2 mps 683 mmHg 80%
    14:00 +9°C° 0.4 mm 2 mps 683 mmHg 75%
    15:00 +9°C° 0.4 mm 2 mps 683 mmHg 71%
    16:00 +10°C° 0.4 mm 2 mps 684 mmHg 67%
    17:00 +8°C° 0.6 mm 2 mps 684 mmHg 74%
    18:00 +7°C° 0.6 mm 1 mps 684 mmHg 81%
    19:00 +6°C° 0.6 mm 1 mps 684 mmHg 89%
    20:00 +5°C° 0.2 mm 1 mps 685 mmHg 90%
    21:00 +5°C° 0.2 mm 1 mps 685 mmHg 91%
    22:00 +4°C° 0.2 mm 1 mps 686 mmHg 92%
    23:00 +4°C° 0.1 mm 1 mps 686 mmHg 92%

    29 April, Saturday

    Time Temperature Precipitation Wind Pressure Humidity
    00:00 +4°C° 0.1 mm 1 mps 686 mmHg 92%
    01:00 +3°C° 0.1 mm 1 mps 686 mmHg 92%
    02:00 +3°C° 0.2 mm 1 mps 686 mmHg 93%
    03:00 +3°C° 0.2 mm 1 mps 687 mmHg 93%
    04:00 +2°C° 0.2 mm 1 mps 687 mmHg 93%
    05:00 +3°C° 0.1 mm 1 mps 687 mmHg 92%
    06:00 +3°C° 0.1 mm 1 mps 688 mmHg 91%
    07:00 +4°C° 0.1 mm 1 mps 688 mmHg 89%
    08:00 +5°C° 0.1 mm 1 mps 688 mmHg 84%
    09:00 +7°C° 0.1 mm 1 mps 689 mmHg 79%
    10:00 +8°C° 0.1 mm 1 mps 689 mmHg 73%
    11:00 +9°C° 0.1 mm 1 mps 689 mmHg 70%
    12:00 +10°C° 0.1 mm 1 mps 689 mmHg 66%
    13:00 +11°C° 0.1 mm 1 mps 689 mmHg 63%
    14:00 +11°C° 0 mm 1 mps 689 mmHg 63%
    15:00 +11°C° 0 mm 1 mps 689 mmHg 64%
    16:00 +11°C° 0 mm 1 mps 689 mmHg 64%
    17:00 +9°C° 0 mm 1 mps 688 mmHg 73%
    18:00 +7°C° 0 mm 1 mps 688 mmHg 82%
    19:00 +4°C° 0 mm 1 mps 688 mmHg 91%
    20:00 +4°C° 0 mm 1 mps 688 mmHg 92%
    21:00 +3°C° 0 mm 1 mps 688 mmHg 93%
    22:00 +2°C° 0 mm 1 mps 688 mmHg 94%
    23:00 +2°C° 0 mm 1 mps 688 mmHg 94%

    30 April, Sunday

    Time Temperature Precipitation Wind Pressure Humidity
    00:00 +1°C° 0 mm 1 mps 688 mmHg 95%
    01:00 +1°C° 0 mm 1 mps 687 mmHg 95%
    02:00 +1°C° 0 mm 1 mps 687 mmHg 95%
    03:00 +1°C° 0 mm 1 mps 687 mmHg 95%
    04:00 0°C° 0 mm 1 mps 687 mmHg 95%
    05:00 +3°C° 0 mm 1 mps 688 mmHg 91%
    06:00 +5°C° 0 mm 1 mps 688 mmHg 86%
    07:00 +7°C° 0 mm 1 mps 689 mmHg 82%
    08:00 +9°C° 0 mm 1 mps 689 mmHg 75%
    09:00 +10°C° 0 mm 1 mps 689 mmHg 68%
    10:00 +12°C° 0 mm 2 mps 689 mmHg 61%
    11:00 +13°C° 0 mm 2 mps 689 mmHg 58%
    12:00 +14°C° 0 mm 2 mps 688 mmHg 56%
    13:00 +15°C° 0 mm 2 mps 688 mmHg 53%
    14:00 +15°C° 0 mm 2 mps 688 mmHg 55%
    15:00 +15°C° 0 mm 2 mps 687 mmHg 57%
    16:00 +14°C° 0 mm 2 mps 687 mmHg 58%
    17:00 +12°C° 0 mm 2 mps 687 mmHg 69%
    18:00 +10°C° 0 mm 1 mps 686 mmHg 80%
    19:00 +8°C° 0 mm 1 mps 686 mmHg 90%
    20:00 +7°C° 0 mm 1 mps 686 mmHg 92%
    21:00 +6°C° 0 mm 1 mps 686 mmHg 93%
    22:00 +5°C° 0 mm 1 mps 686 mmHg 94%
    23:00 +5°C° 0 mm 1 mps 686 mmHg 95%
    Show more